Regional Weather Roundup
Issued by NWS Cleveland, OH

Home | Current Version | Previous Version | Graphics & Text | Print | Product List | Glossary On
Versions: 1 2 3 4 5 6 7 8 9 10 11 12 13 14 15 16 17 18 19 20 21 22 23 24 25 26 27 28 29 30 31 32 33 34 35 36 37 38 39 40 41 42 43 44 45 46 47 48 49 50
205
ASUS41 KCLE 070400
RWRCLE
OHIO REGIONAL WEATHER ROUNDUP
NATIONAL WEATHER SERVICE WILMINGTON, OH
1100 PM EST SAT FEB 06 2016

NOTE: "FAIR" INDICATES FEW OR NO CLOUDS BELOW 12,000 FEET WITH NO
SIGNIFICANT WEATHER AND/OR OBSTRUCTIONS TO VISIBILITY.

OHZ001>008-015>018-024>027-034-035-043-044-070500-
   NORTHWEST OHIO

CITY           SKY/WX    TMP DP  RH WIND       PRES   REMARKS
DEFIANCE       FAIR      30  24  78 S5        30.17F WCI  25
FINDLAY        FAIR      28  21  75 S7        30.17F WCI  21
TOLEDO EXPRESS FAIR      26  22  84 SW3       30.17F
TOLEDO EXEC    FAIR      29  22  75 SW6       30.18F WCI  23
LIMA           FAIR      32  25  75 S9        30.17F WCI  24
$$

OHZ009>014-019>023-028>033-038-089-070500-
   NORTHEAST OHIO

CITY           SKY/WX    TMP DP  RH WIND       PRES   REMARKS
CLE-HOPKINS    FAIR      32  18  56 S7        30.21F WCI  26
CLE-LAKEFRONT  FAIR      35  20  54 SW12      30.19S WCI  27
CUY CO. ARPT   PTCLDY    32  21  64 SW8       30.19F WCI  25
LORAIN-ELYRIA  FAIR      28  20  71 S3        30.19F
ASHTABULA      CLOUDY    29  24  82 SW5       30.19S WCI  24
AKRON-CANTON   FAIR      29  16  58 SW6       30.18F WCI  23
WOOSTER        NOT AVBL
MANSFIELD      FAIR      30  19  63 SW6       30.18S WCI  24
YOUNGSTOWN     FAIR      30  17  58 SW8       30.18S WCI  22
$$

OHZ042-051>053-060>062-070>072-077>081-070500-
  SOUTHWEST OHIO

CITY           SKY/WX    TMP DP  RH WIND       PRES   REMARKS
CINC-COVINGTON FAIR      33  23  66 S6        30.22F WCI  28
CINC-LUNKEN    FAIR      29  26  89 CALM      30.25F
HAMILTON       FAIR      27  24  89 CALM      30.23F
DAYTON         NOT AVBL
WRIGHT-PAT AFB FAIR      28  21  74 S1        30.20F
DAYTON GENERAL FAIR      33  21  61 S7        30.20F WCI  27
WILMINGTON     FAIR      30  23  75 S6        30.21F WCI  24
$$

OHZ036-037-039>041-045>050-054>059-063>069-073>076-082>088-070500-
  CENTRAL AND SOUTHEAST OHIO

CITY           SKY/WX    TMP DP  RH WIND       PRES   REMARKS
COLUMBUS       FAIR      30  18  60 CALM      30.21F
OSU AIRPORT    FAIR      31  20  63 S6        30.20F WCI  25
BOLTON FIELD   NOT AVBL
RICKENBACK AFB NOT AVBL
NEWARK         FAIR      25  19  78 CALM      30.21F
MARION         FAIR      27  17  66 S5        30.20S WCI  22
LANCASTER      FAIR      26  20  77 CALM      30.23S
ZANESVILLE     FAIR      28  16  60 CALM      30.22F
NEW PHILLY     FAIR      27  18  69 CALM      30.21F
$$




USA.gov is the U.S. government's official web portal to all federal, state and local government web resources and services.